Other Public Products
Issued by NWS Grand Forks, ND

Home | Current Version | Previous Version | Text Only | Print | Product List | Glossary On
Versions: 1 2 3 4 5 6 7 8 9 10 11 12 13 14 15 16 17 18 19 20 21 22 23 24 25 26 27 28 29 30 31 32 33 34 35 36 37 38 39 40 41 42 43 44 45 46 47 48 49 50
000
FPUS83 KFGF 171931
OPUFGF
PRAIRIE TO PINES WEATHER ROUNDUP
NATIONAL WEATHER SERVICE EASTERN NORTH DAKOTA/GRAND FORKS ND
100 PM CST SUN DEC 17 2017

 **SATELLITE DATA USED TO AUGMENT SKY COVER AT AUTOMATED STATIONS**
 *****  WEATHER ACROSS EASTERN NORTH DAKOTA  *****

CITY           SKY/WX    TMP DP  RH WIND       PRES   REMARKS
GRAND FORKS    FAIR      26  22  84 SW8       29.93F WCI  18
GRND FORKS AFB FAIR      31  19  61 SW9       29.92F WCI  23
GRND FORKS NWS   N/A     25 N/A N/A SW9         N/A  WCI  15
BUXTON           N/A     29  29  99 SW5         N/A  WCI  24
DEVILS LAKE    FAIR      31  23  72 S6        29.90F
FARGO          FAIR      31  28  89 S9        29.97F WCI  23
WAHPETON ARPT  FAIR      32  30  93 CALM      29.99F
$$

 *****  WEATHER ACROSS CENTRAL AND WESTERN NORTH DAKOTA  *****

CITY           SKY/WX    TMP DP  RH WIND       PRES   REMARKS
JAMESTOWN      FAIR      37  27  67 SW5       29.92F
BISMARCK       FAIR      37  25  61 SW7       29.92F
MINOT          FAIR      38  23  55 S17       29.83F
MINOT AFB      FAIR      38  21  49 SW16      29.82F
GARRISON         N/A     35  23  61 SW13      29.86F
WILLISTON      FAIR      34  26  72 SW10      29.80F
DICKINSON      FAIR      38  25  59 SW17      29.82F
HETTINGER      PTSUNNY   39  22  50 S17       29.88F
$$

 *****  OTHER OBSERVATIONS NORTHEAST NORTH DAKOTA  *****

CITY           SKY/WX    TMP DP  RH WIND       PRES   REMARKS
WALHALLA       FAIR      30  18  59 W13       29.87F WCI  20
LANGDON        NOT AVBL
CAVALIER       FAIR      32  18  55 SW15      29.88F WCI  22
GRAFTON        NOT AVBL
CANDO          FAIR      32  27  80 S6        29.88F
FORT TOTTEN    NOT AVBL
ROLLA          FAIR      25  19  80 SW13      29.84F WCI  13
RUGBY          NOT AVBL
 ***** THE ABOVE OBSERVATIONS ARE NON NWS ARE NOT QUALITY
        CONTROLLED AND MAY MIS-REPORT RAIN FOR SNOW...
$$

 *****  OTHER OBSERVATIONS SOUTHEAST NORTH DAKOTA *****

CITY           SKY/WX    TMP DP  RH WIND       PRES   REMARKS
COOPERSTOWN    FAIR      32  27  80 SW6       29.91F
VALLEY CITY    NOT AVBL
OAKES            N/A     34  30  86 S6        29.96F
GWINNER          N/A     36  27  69 SW6       29.96F
SHEYENNE NWR     N/A     34  29  82 SW5       29.95S
BUFFALO          N/A     33  26  75 S3          N/A
WYNDMERE       NOT AVBL
 ***** THE ABOVE OBSERVATIONS ARE NON NWS ARE NOT QUALITY
       CONTROLLED AND MAY MIS-REPORT RAIN FOR SNOW...
$$

  *****  WEATHER ACROSS NORTHERN MINNESOTA  *****

CITY           SKY/WX    TMP DP  RH WIND       PRES   REMARKS
FLAG ISLAND    FAIR      25  21  86 CALM      29.86F
WARROAD        FAIR      25  21  86 SW8G16    29.89F WCI  16
ROSEAU         FAIR      25  19  80 SW8       29.89F WCI  16
HALLOCK        FAIR      19  18  93 S9        29.90F WCI   9
THF RVR FALLS  NOT AVBL
HALSTAD        NOT AVBL
FOSSTON        FOG       27  25  93 SW9       29.95F VSB 1/4 WCI  17
BAUDETTE       FAIR      28  25  88 SW8       29.89F WCI  20
WASKISH        PTSUNNY   27  25  93 SW8       29.92F WCI  18
CROOKSTON      FAIR      21  19  93 S6        29.95F WCI  14
$$
  *****  WEATHER ACROSS CENTRAL AND WEST MINNESOTA  *****

CITY           SKY/WX    TMP DP  RH WIND       PRES   REMARKS
BEMIDJI        FAIR      33  27  76 W7        29.93F
PARK RAPIDS    CLOUDY    27  25  92 SW7       29.96F WCI  19
WADENA         CLOUDY    28  27  93 SW5       29.97F FOG     WCI  23
DETROIT LAKES  PTSUNNY   30  30 100 SW8       29.97F FOG     WCI  23
MOORHEAD       CLOUDY    28  27  93 CALM      29.98F FOG
FERGUS FALLS   CLOUDY    30  30 100 S5        30.01F FOG
ELBOW LAKE     CLOUDY    29  29 100 S6        29.99F FOG     WCI  23
MORRIS MN      FAIR      30  28  93 SE7       29.98F FOG     WCI  23
STAPLES        CLOUDY    27  27 100 CALM      29.98F FOG
WHEATON        FAIR      32  30  93 SE5       30.01F FOG
$$
  *****  WEATHER ELSEWHERE ACROSS MINNESOTA  *****

CITY           SKY/WX    TMP DP  RH WIND       PRES   REMARKS
DULUTH         CLOUDY    23  20  88 SW8       29.98F WCI  14
INTRNTL FALLS  CLOUDY    29  24  82 W8        29.91F HAZE    WCI  21
ELY            CLOUDY    23  21  93 S7        29.94F WCI  15
CLOQUET        CLOUDY    25  19  80 S5        29.98F WCI  19
BRAINERD       CLOUDY    25  22  88 W6        30.00F FOG     WCI  18
HIBBING        CLOUDY    22  20  92 S7        29.97F FOG     WCI  13
ALEXANDRIA     CLOUDY    29  27  92 SW5       29.99F FOG     WCI  24
SAINT CLOUD    FAIR      25  21  85 W3        30.02F
MINNEAPOLIS    CLOUDY    27  25  92 CALM      30.04F FOG
$$

  *****  WEATHER ACROSS SOUTH DAKOTA  *****

CITY           SKY/WX    TMP DP  RH WIND       PRES   REMARKS
SIOUX FALLS    PTSUNNY   36  29  75 N3        30.01F
BROOKINGS      NOT AVBL
WATERTOWN      PTSUNNY   36  32  85 S8        29.96F
HURON          CLOUDY    38  33  82 MISG      30.00F
SISSETON         N/A     39  32  76 NW6       29.97F
ABERDEEN       CLOUDY    36  29  75 SW6       29.98F
MITCHELL       CLOUDY    38  33  82 SW3       30.02F
PIERRE         CLOUDY    36  31  82 S6        29.97F
MOBRIDGE       FAIR      40  25  55 S12       29.92F
RAPID CITY     FAIR      40  26  57 S16       29.88F
$$

  *****  SOME WEATHER IN NEARBY STATES *****

CITY           SKY/WX    TMP DP  RH WIND       PRES   REMARKS
GLASGOW MT     FAIR      35  22  58 S12       29.75F
GREAT FALLS MT FAIR      38  17  42 SW32      29.81F
CHEYENNE WY    FAIR      30  28  92 SW16      29.90F WCI  19
SCOTTSBLUFF NE FAIR      42  28  57 SW6       29.93F
OMAHA NE       PTSUNNY   37  27  67 N7        29.98F
DES MOINES IA  PTSUNNY   36  32  85 N5        29.97F
DAVENPORT IA   FAIR      41  29  62 SW5       30.00F
CHICAGO IL     PTSUNNY   40  34  79 CALM      30.00F
EAU CLAIRE WI  CLOUDY    28  26  92 S7        30.02F FOG     WCI  21
LA CROSSE WI   CLOUDY    32  28  85 CALM      30.03F
$$

  *****  SOME NATIONAL WEATHER *****

CITY           SKY/WX    TMP DP  RH WIND       PRES   REMARKS
LA GUARDIA NY  CLOUDY    36  23  59 NE6       30.24F
RALEIGH NC     PTSUNNY   51  29  42 W7        30.21S
ATLANTA GA     LGT RAIN  44  40  85 SE7       30.17F FOG
NEW ORLEANS LA HVY RAIN  68  68 100 N3        30.08F FOG
OKLAHOMA CITY  DRIZZLE   45  42  89 S6        30.02F
ALBUQUERQUE NM PTSUNNY   46  13  26 SW7       30.02F
SALT LAKE CITY FAIR      34  25  69 CALM      30.21F
LOS ANGELES CA FAIR      69  18  14 CALM      29.92F
BOISE ID       FAIR      34  22  61 E3        30.26F
SEATTLE WA     CLOUDY    47  43  86 S20G26    30.08F
$$

*** WEATHER ACROSS MANITOBA...SASKATCHEWAN AND ONTARIO ***
                ***ONTARIO***

CITY           SKY/WX    TMP DP  RH WIND       PRES   REMARKS
GERALDTON      FRZ DRZL  23  21  93 S6        29.92F VSB 1   WCI  16
THUNDER BAY    CLOUDY    27  21  80 SW3       29.98F
SIOUX LOOKOUT  CLOUDY    23  21  93 SW9       29.83F WCI  13
TORONTO        CLOUDY    18   5  57 VRB2      30.24S
BIG TROUT LK   FLURRIES  12  10  92 SW9       29.69  WCI   0
PICKLE LAKE    FLURRIES  19  18  93 SW13G20   29.76F WCI   7
DRYDEN         CLOUDY    25  23  93 SW14G21   29.83F WCI  13
KENORA         PTSUNNY   21  21 100 SW13G20   29.84F WCI   9
$$
                *** MANITOBA***

CITY           SKY/WX    TMP DP  RH WIND       PRES   REMARKS
BRANDON        MOSUNNY   25  18  74 SW13      29.81F WCI  13
DAUPHIN        SUNNY     32  19  59 W10       29.72F WCI  24
ISLAND LAKE    LGT SNOW  18  16  93 S5        29.65F WCI  11
PILOT MOUND      N/A     25  18  74 S8          N/A  WCI  16
THE PAS        PTSUNNY   25  19  80 S9        29.50F WCI  15
THOMPSON       LGT SNOW  10   7  85 S5        29.52F FOG     WCI   2
WINNIPEG       MOSUNNY   23  16  74 S9        29.86F WCI  13
LYNN LAKE      LGT SNOW  10   9  92 S7        29.35F WCI   0
CHURCHILL      FLURRIES   3   0  85 SW5       29.57F WCI  -6
GILLAM         FLURRIES   7   3  85 S8        29.58F WCI  -6
$$
                ***SASKATCHEWAN***

CITY           SKY/WX    TMP DP  RH WIND       PRES   REMARKS
ESTEVAN        PTSUNNY   36  23  60 S15G24    29.74F
KINDERSLEY     MOSUNNY   30  21  69 SW15      29.55F WCI  19
LLOYDMINSTER   PTSUNNY   36  23  60 W17       29.41F
PRINCE ALBERT  PTSUNNY   27  18  69 SW12G20   29.48F WCI  16
REGINA         CLOUDY    30  21  69 SW16      29.63F WCI  19
YORKTON        SUNNY     27  18  69 S12G17    29.64F WC



USA.gov is the U.S. government's official web portal to all federal, state and local government web resources and services.